Location: Altmatt
(47.1333°N, 8.7000°E)
Time: 19:06:23
(UTC+00:00)

Cosmos 1633 - Pass Details

Date: 13 July 2020
Orbit: 462 x 482 km, 82.5° (Epoch: 12 August)

Event Time Altitude Azimuth Distance (km) Brightness Sun altitude
Exits shadow 22:22:48 59° 120° (ESE) 557 2.5 -19.5°
Maximum altitude 22:23:03 61° 96° (E) 546 2.6 -19.5°
Drops below altitude 10° 22:26:38 10° 16° (NNE) 1,654 6.1 -19.7°
Sets 22:28:44 0° 13° (NNE) 2,534 7.3 -19.8°
